Location: Arbon
(43.0005°N, 0.7472°E)
Time: 14:52:41
(UTC+00:00)

X-37B - Visible Passes

Search period start: 09 December 2021 00:00
Search period end: 19 December 2021 00:00
Orbit: 329 x 342 km, 45.0° (Epoch: 06 December)

Date Brightness Start Highest point End Pass type
(mag) Time Alt. Az. Time Alt. Az. Time Alt. Az.
09 Dec 0.2 17:54:06 10° WSW 17:56:59 87° SSE 17:57:23 63° ENE visible
10 Dec 1.2 18:14:37 10° W 18:16:56 47° WNW 18:16:56 47° WNW visible
11 Dec 0.3 16:59:32 10° WSW 17:02:25 87° SSE 17:05:14 11° ENE visible
11 Dec 2.7 18:35:11 10° WNW 18:36:28 22° WNW 18:36:28 22° WNW visible
12 Dec 0.5 17:20:03 10° W 17:22:55 60° N 17:24:47 19° ENE visible
12 Dec 3.8 18:55:42 10° WNW 18:56:01 12° WNW 18:56:01 12° WNW visible
13 Dec 0.6 17:40:37 10° WNW 17:43:28 53° N 17:44:22 35° ENE visible
14 Dec 0.3 18:01:08 10° WNW 18:03:59 64° N 18:03:59 64° N visible
15 Dec 1.5 18:21:36 10° WNW 18:23:42 43° W 18:23:42 43° W visible
16 Dec 0.4 17:06:34 10° WNW 17:09:27 64° N 17:12:16 10° E visible
16 Dec 3.0 18:42:10 10° W 18:43:31 22° W 18:43:31 22° W visible
17 Dec 0.4 17:27:03 10° WNW 17:29:56 78° SSW 17:32:15 15° ESE visible
17 Dec 4.0 19:03:12 10° WSW 19:03:30 11° WSW 19:03:30 11° WSW visible
18 Dec 1.8 17:47:36 10° W 17:50:18 36° SSW 17:52:26 14° SE visible
